SCOUT X-4 R/B, 1358

Orbit data source: Space-Track

SCOUT X-4 R/B, 1358 is space debris in LEO originally from a launch on Thu, 29 Apr 1965 UTC launched from the Wallops Island (WLPIS). Debris objects in space refer to the collection of defunct objects orbiting the Earth. Examples of debris include non-operational satellites, rocket bodies, and fragments generated from explosions, collisions, or faulty payload assembly.

Loading next visibility...
Identifier
1358, 1965-032B
Orbit
LEO
Country
Flag of USUS
Related business
Manufacturer
ABL
Mission
Spacecraft
Bus & Motor
ALTAIR, Unknown motor
Mass
33 kg wet, 33 kg dry
Launch date (UTC)
1965-04-29 (60 years ago)
Launch vehicle
Unknown
Launch site
Wallops Island (WLPIS)
Object type
Payload
Rocket body
Debris
Shape & HBR
Cyl, 0.8 m
Radar Cross Section
0.687 m², Medium (>0.1 m² and < 1m²)

Expand to show TLE details & history
Last TLE update: 19 hours ago

TLE from 19 hours ago
0 SCOUT X-4 R/B
1 01358U 65032B   25259.41150756 -.00000043  00000-0  55176-4 0  9991
2 01358  41.1904 157.8703 0245220 241.9709 115.6040 13.38224223950995
Epoch: 2025-09-16T09:52Z
TLE epoch observation values (Epoch: 2025-09-16T09:52:34.253Z)
Latitude
-0.00006°
Longitude
14.12532°
Altitude
1,198.52 km
Speed
7.216 km/s
True Right ascension
10h 31m 28s
True Declination
0° 00' 00"
Sunlit
Object was in daylight at epoch
Visualization orbit readout
Latitude
Unknown
Longitude
Unknown
Altitude
Unknown
Speed
Unknown
Apparent Right ascension
Unknown
Apparent Declination
Unknown
Sunlit
N/A
Visualization observer readout
Local Sidereal Time
21:17:21
Azimuth
Unknown
Elevation
Unknown
Doppler factor
Unknown
Orbital elements
Apogee altitude
1,301.781 km
Perigee altitude
934.143 km
Semi-major axis
7,496.099 km
Eccentricity
0.02452
Inclination
41.1904°
RAAN
157.8703°
Arg. of periapsis
241.9709°
True anomaly
118.10414°
Mean anomaly
115.604°
Eccentric anomaly
116.85745°
Mean motion
3.34418 °/min
Orbital period
107.65 mins
BSTAR
0.000055176
Loading maneuver chart data...
Computing Atmospheric mass density...
Loading historical data...
Loading historical data...
Loading historical data...
Loading historical data...
Loading historical data...
Loading historical data...
Loading historical data...
Other satellites on launch #32 in the year 1965 (1965-04-29 UTC)

Documentation

Showing up to 5 results
|